Flag for Canada

Past Weather in Kingston, Ontario, Canada — Yesterday and Last 2 Weeks

Now
72 °F

Scattered clouds.


Feels Like: 76 °F
Forecast: 71 / 48 °F
Wind: 6 mph from West

Location: Kingston
Current Time: Sep 23, 2020 at 1:09:24 pm
Latest Report: Sep 23, 2020 at 12:00 pm
Visibility: 15 mi
Pressure29.88 "Hg
Humidity: 61%
Dew Point: 57 °F
Location of KingstonLocation

Past Weather in Kingston — Graph

°F

Kingston Temperature Yesterday

Maximum temperature yesterday: 64 °F (at 4:00 pm)
Minimum temperature yesterday: 37 °F (at 6:00 am)
Average temperature yesterday: 57 °F

High & Low Weather Summary for the Past Weeks

 TemperatureHumidityPressure
High72 °F (Sep 13, 5:00 pm)100% (Sep 10, 6:00 am)30.63 "Hg (Sep 10, 6:00 am)
Low34 °F (Sep 19, 6:00 am)36% (Sep 18, 12:00 pm)29.84 "Hg (Sep 13, 1:45 pm)
Average58 °F73%30.24 "Hg
* Reported Sep 8 11:00 am — Sep 23 11:00 am, Kingston. Weather by CustomWeather, © 2020

Note: Actual official high and low records may vary slightly from our data, if they occured in-between our weather recording intervals... More about our weather records

Kingston Weather History for the Previous 24 Hours

Scroll right to see more
 ConditionsComfort  
Time TempWeatherWind HumidityBarometerVisibility
11:00 am
Wed, Sep 23
68 °FPassing clouds.5 mph64%29.89 "Hg15 mi
10:00 am64 °FPassing clouds.8 mph73%29.90 "Hg15 mi
9:00 am57 °FPassing clouds.8 mph82%29.89 "Hg15 mi
8:00 am54 °FPassing clouds.7 mph88%29.89 "Hg15 mi
7:00 am52 °FPassing clouds.9 mph88%29.88 "Hg15 mi
6:00 am52 °FPassing clouds.8 mph88%29.88 "Hg15 mi
11:00 pm
Tue, Sep 22
59 °FPartly cloudy.6 mph72%29.96 "Hg15 mi
10:00 pm57 °FPassing clouds.6 mph72%29.97 "Hg15 mi
9:00 pm59 °FPassing clouds.9 mph68%29.99 "Hg15 mi
8:00 pm61 °FPassing clouds.8 mph59%30.01 "Hg15 mi
7:00 pm61 °FPassing clouds.10 mph63%30.01 "Hg15 mi
6:00 pm64 °FPassing clouds.9 mph64%30.03 "Hg15 mi
5:00 pm64 °FScattered clouds.9 mph68%30.05 "Hg15 mi
4:00 pm64 °FPartly sunny.10 mph64%30.08 "Hg15 mi
3:00 pm63 °FPartly sunny.9 mph68%30.10 "Hg15 mi
2:00 pm63 °FScattered clouds.9 mph64%30.15 "Hg15 mi
1:00 pm63 °FScattered clouds.6 mph56%30.19 "Hg15 mi
Weather by CustomWeather, © 2020

See weather overview